Santiago de Cuba, Cuba

8:26 PM CDT on October 20, 2018 (GMT -0400)
Antonio Maceo International

Weather History for MUCU - March, 2018

Change the Weather History Date:

Wednesday, March 14, 2018

  Actual Average Record
Temperature  
Mean Temperature 76 °F -  
Max Temperature 84 °F 81 °F 88 °F (2016)
Min Temperature 68 °F 69 °F 68 °F (2009)
Cooling Degree Days 11    
Growing Degree Days 26 (Base 50)    
Moisture  
Dew Point 66 °F    
Average Humidity 69    
Maximum Humidity 83    
Minimum Humidity 47    
Precipitation  
Precipitation 0.00 in - - ()
Sea Level Pressure  
Sea Level Pressure 30.00 in    
Wind  
Wind Speed 5 mph ()    
Max Wind Speed 10 mph    
Max Gust Speed -    
Visibility 5.5 miles    
Events      
Averages and records for this station are not official NWS values.
T = Trace of Precipitation, MM = Missing Value Source: Averaged Metar Reports

Daily Weather History Graph

Daily Weather History Graph

Search for Another Location

Airport or City:

Astronomy

Mar. 14, 2018 Rise Set
Actual Time 7:12 AM CDT 7:12 PM CDT
Civil Twilight 6:50 AM CDT 7:34 PM CDT
Nautical Twilight 6:25 AM CDT 8:00 PM CDT
Astronomical Twilight 5:59 AM CDT 8:25 PM CDT
Moon 5:19 AM CDT (3/14) 4:55 PM CDT (3/14)
Length of Visible Light 12h 44m
Length of Day
12h 00m
Waning Crescent, 8% of the Moon is Illuminated
Mar 14
Waning Crescent
Mar 17
New
Mar 24
First Quarter
Mar 31
Full
Apr 8
Last Quarter

Hourly Weather History & Observations

Time (CDT) Temp. Heat Index Dew Point Humidity Pressure Visibility Wind Dir Wind Speed Gust Speed Precip Events Conditions
12:51 AM 73.4 °F - 64.4 °F 73% 30.01 in 5.0 mi North 3.5 mph - N/A   Partly Cloudy
1:50 AM 71.6 °F - 64.4 °F 78% 30.01 in 5.0 mi North 4.6 mph - N/A   Partly Cloudy
2:00 AM 72 °F - 65 °F 72% 30.01 in 5 mi North 4.5 mph - -   Haze
2:50 AM 69.8 °F - 64.4 °F 83% 29.98 in 5.0 mi North 4.6 mph - N/A   Partly Cloudy
3:50 AM 69.8 °F - 64.4 °F 83% 29.95 in 5.0 mi North 4.6 mph - N/A   Partly Cloudy
4:51 AM 69.8 °F - 64.4 °F 83% 29.95 in 5.0 mi North 4.6 mph - N/A   Partly Cloudy
5:52 AM 69.8 °F - 64.4 °F 83% 29.98 in 5.0 mi ENE 5.8 mph - N/A   Partly Cloudy
6:52 AM 69.8 °F - 64.4 °F 83% 29.98 in 5.6 mi NE 4.6 mph - N/A   Partly Cloudy
7:51 AM 69.8 °F - 64.4 °F 83% 30.01 in 5.6 mi NNW 5.8 mph - N/A   Partly Cloudy
8:00 AM 69 °F - 64 °F 79% 30.01 in 6 mi NNW 6.7 mph - -   Haze
8:51 AM 73.4 °F - 66.2 °F 78% 30.04 in 5.6 mi North 3.5 mph - N/A   Scattered Clouds
9:51 AM 77.0 °F - 68.0 °F 74% 30.01 in 5.6 mi Variable 2.3 mph - N/A   Partly Cloudy
10:50 AM 77.0 °F - 68.0 °F 74% 30.04 in 5.6 mi East 5.8 mph - N/A   Partly Cloudy
11:00 AM 77 °F - 68 °F 66% 30.03 in 6 mi ENE 2.2 mph - -   Haze
11:51 AM 82.4 °F 84.6 °F 66.2 °F 58% 30.04 in 5.6 mi SW 8.1 mph - N/A   Unknown
12:51 PM 82.4 °F 84.6 °F 66.2 °F 58% 30.01 in 5.6 mi SW 9.2 mph - N/A   Unknown
1:52 PM 84.2 °F 86.6 °F 66.2 °F 55% 30.01 in 5.6 mi SW 9.2 mph - N/A   Partly Cloudy
2:00 PM 84 °F - 67 °F 47% 30.01 in 6 mi SW 8.9 mph - -   Haze
2:51 PM 84.2 °F 86.6 °F 66.2 °F 55% 29.98 in 5.6 mi SW 10.4 mph - N/A   Partly Cloudy
3:51 PM 84.2 °F 86.6 °F 66.2 °F 55% 2.98 in 5.6 mi SW 10.4 mph - N/A   Scattered Clouds
4:51 PM 82.4 °F 84.6 °F 66.2 °F 58% 29.95 in 5.6 mi SSW 9.2 mph - N/A   Scattered Clouds
5:00 PM 82 °F - 67 °F 51% 29.96 in 6 mi SSW 8.9 mph - -   Haze
5:50 PM 80.6 °F 83.2 °F 68.0 °F 65% 29.95 in 5.6 mi SW 6.9 mph - N/A   Scattered Clouds
6:50 PM 80.6 °F 83.2 °F 68.0 °F 65% 29.95 in 5.6 mi SW 8.1 mph - N/A   Scattered Clouds
7:50 PM 80.6 °F 83.2 °F 68.0 °F 65% 29.98 in 5.6 mi SW 8.1 mph - N/A   Scattered Clouds
8:00 PM 80 °F - 68 °F 58% 29.98 in 6 mi SW 8.9 mph - -   Haze
8:50 PM 78.8 °F - 68.0 °F 69% 30.01 in 5.6 mi WNW 4.6 mph - N/A   Partly Cloudy
9:50 PM 77.0 °F - 66.2 °F 69% 30.01 in 5.6 mi North 6.9 mph - N/A   Partly Cloudy
10:50 PM 75.2 °F - 66.2 °F 73% 30.04 in 5.6 mi North 8.1 mph - N/A   Partly Cloudy
11:00 PM 76 °F - 66 °F 63% 30.04 in 6 mi North 8.9 mph - -   Haze
11:50 PM 75.2 °F - 64.4 °F 69% 30.04 in 5.6 mi Variable 3.5 mph - N/A   Partly Cloudy